Tracking 33845 objects as of 17-Apr-2026
HD Live streaming from Space Station
objects crossing your sky now

STARLINK-3680

Track STARLINK-3680 now!
10-day predictions
STARLINK-3680 is classified as:


NORAD ID: 51969
Int'l Code: 2022-025P
Perigee: 477.2 km
Apogee: 478.5 km
Inclination: 53.2 °
Period: 94.0 minutes
Semi major axis: 6848 km
RCS: Unknown
Launch date: March 9, 2022
Source: United States (US)
Launch site: AIR FORCE EASTERN TEST RANGE (AFETR)
Your satellite tracking list
Your tracking list is empty




NASA's NSSDC Master Catalog

Two Line Element Set (TLE):
1 51969U 22025P   26107.00592884 -.00000151  00000-0  68927-5 0  9998
2 51969  53.1615 206.2869 0000923  92.2054 267.9053 15.31702875226878
Source of the keplerian elements: AFSPC